Regional Weather Roundup
Issued by NWS

Home | Current Version | Previous Version | Graphics & Text | Print | Product List | Glossary On
Versions: 1 2 3 4 5 6 7 8 9 10 11 12 13 14 15 16 17 18 19 20 21 22 23 24 25 26 27 28 29 30 31 32 33 34 35 36 37 38 39 40 41 42 43 44 45 46 47 48 49 50
000
ASUS43 KIND 250009
RWRIN

WEATHER ROUNDUP FOR INDIANA
NATIONAL WEATHER SERVICE INDIANAPOLIS IN
800 PM EDT TUE APR 24 2018

NOTE: "FAIR" INDICATES FEW OR NO CLOUDS BELOW 12,000 FEET WITH NO
SIGNIFICANT WEATHER AND/OR OBSTRUCTIONS TO VISIBILITY.

* - STATION DOES NOT REPORT WEATHER SUCH AS PRECIPITATION OR FOG.

+ - STATION NOT QUALITY CONTROLLED BY THE NATIONAL WEATHER SERVICE.
    USE DATA WITH CAUTION...ESPECIALLY DEWPOINT AND RELATIVE
    HUMIDITY OBSERVATIONS.

INZ001>003-010>013-019-020-250100-
NORTHWEST INDIANA

CITY           SKY/WX    TMP DP  RH WIND       PRES   REMARKS
GARY /AIRPORT/ MOCLDY    52  45  76 NE6       30.01S
KNOX *+        CLOUDY    55  48  76 N8        29.97R
LA PORTE +     CLOUDY    54  48  80 N9        29.98F
6HR MIN TEMP:  54; 6HR MAX TEMP:  61;

MICHIGAN CITY+ CLOUDY    50  46  87 NE6       29.99F
MONTICELLO +   CLOUDY    59  50  72 NE5       29.95S
6HR MIN TEMP:  57; 6HR MAX TEMP:  59;

RENSSELAER +   CLOUDY    59  45  58 N8        29.96F
VALPARAISO     CLOUDY    57  49  74 N9        29.98S
6HR MIN TEMP:  57; 6HR MAX TEMP:  63;


$$

LMZ046-743>745-250100-
SOUTHERN LAKE MICHIGAN

STATION/POSITION TIME  TEMP    WIND        PRES    WAVE
                       AIR SEA DIR/SP/G            HT
                 (UTC) (F)     (DEG/KT/KT) (MB)    (FT)
BURNS HARBOR     2314   44      50/  4/  6 1016.3S
MICHIGAN CITY    2340   44      20/  5/  5   N/A

$$

INZ004-005-014>016-021>024-250100-
NORTH CENTRAL INDIANA

CITY           SKY/WX    TMP DP  RH WIND       PRES   REMARKS
ELKHART        CLOUDY    57  48  72 NE7       29.96F
GOSHEN         CLOUDY    57  50  77 NE6       29.96S
6HR MIN TEMP:  57; 6HR MAX TEMP:  59;

LOGANSPORT +   CLOUDY    55  50  82 NE3       29.96S
PERU/GRISSOM   CLOUDY    56  56 100 N3        29.94S
6HR MIN TEMP:  55; 6HR MAX TEMP:  56; 6HR PCP: TRACE;

ROCHESTER +    CLOUDY    57  52  82 NE3       29.96S
SOUTH BEND     CLOUDY    57  48  72 N7        29.98S
6HR MIN TEMP:  57; 6HR MAX TEMP:  63;

WARSAW +       CLOUDY    55  50  82 NE5       29.96S

$$

INZ006>009-017-018-025>027-250100-
NORTHEAST INDIANA

CITY           SKY/WX    TMP DP  RH WIND       PRES   REMARKS
ANGOLA *+      CLOUDY    52  50  93 E9        29.96S
AUBURN +       CLOUDY    52  52 100 NE7       29.97S FOG
FORT WAYNE     CLOUDY    54  53  97 NE9       29.95S
6HR MIN TEMP:  54; 6HR MAX TEMP:  57; 6HR PCP: TRACE;

HUNTINGTON +   CLOUDY    53  52  96 N6        29.95S FOG
6HR MIN TEMP:  53; 6HR MAX TEMP:  56;


$$

INZ028-029-035-036-043>045-051>053-250100-
WEST CENTRAL INDIANA

CITY           SKY/WX    TMP DP  RH WIND       PRES   REMARKS
CRAWFORDSVL +  CLOUDY    55  52  90 NE8       29.94F
6HR MIN TEMP:  52; 6HR MAX TEMP:  55;

GREENCASTLE +  CLOUDY    54  52  94 N6        29.95S
LAFAYETTE      CLOUDY    58  51  78 N10       29.95R
6HR MIN TEMP:  57; 6HR MAX TEMP:  60;

TERRE HAUTE    CLOUDY    59  52  77 N3        29.94S
6HR MIN TEMP:  57; 6HR MAX TEMP:  62;


$$

INZ030>032-037>040-046>048-054>057-064-065-250100-
CENTRAL INDIANA

CITY           SKY/WX    TMP DP  RH WIND       PRES   REMARKS
COLUMBUS       CLOUDY    54 N/A N/A CALM      29.92S
FRANKFORT +    CLOUDY    58  53  85 NE6       29.97R
6HR MIN TEMP:  57; 6HR MAX TEMP:  59;

GREENWOOD *+   CLOUDY   N/A N/A N/A N8        29.94R
INDIANAPOLIS   CLOUDY    55  53  93 N8        29.93S
6HR MIN TEMP:  55; 6HR MAX TEMP:  57; 6HR PCP: TRACE;

-EAGLE CREEK   CLOUDY    55  52  89 N6        29.93S
6HR MIN TEMP:  55; 6HR MAX TEMP:  57; 6HR PCP:  0.01;

KOKOMO +       CLOUDY    55  52  89 N7        29.96R
6HR MIN TEMP:  54; 6HR MAX TEMP:  56; 6HR PCP:  0.01;

MARION +       CLOUDY    53  51  92 CALM      29.95S
MT COMFORT *+  CLOUDY    54  54 100 N9        29.93S
SHELBYVILLE    CLOUDY    56  52  86 N6        29.91S
6HR MIN TEMP:  56; 6HR MAX TEMP:  58; 6HR PCP:  0.01;

ZIONSVILLE +   CLOUDY    53  52  95 N8        29.95R
6HR MIN TEMP:  53; 6HR MAX TEMP:  54; 6HR PCP:  0.01;


$$

INZ033-034-041-042-049-050-058-059-250100-
EAST CENTRAL INDIANA

CITY           SKY/WX    TMP DP  RH WIND       PRES   REMARKS
MUNCIE         LGT RAIN  55  53  93 N7        29.93R FOG
6HR MIN TEMP:  56; 6HR MAX TEMP:  58; 6HR PCP:  0.09;

RICHMOND +     CLOUDY    52  52 100 NE6       29.91F

$$

INZ060-061-067>069-081>083-085>088-250100-
SOUTHWEST INDIANA

CITY           SKY/WX    TMP DP  RH WIND       PRES   REMARKS
EVANSVILLE     CLOUDY    58  54  86 NW6       29.95R
6HR MIN TEMP:  56; 6HR MAX TEMP:  59; 6HR PCP: TRACE;

HUNTINGBURG +  LGT RAIN  55  54  94 NW7       29.94R FOG
6HR MIN TEMP:  55; 6HR MAX TEMP:  58; 6HR PCP: TRACE;

WASHINGTON +   CLOUDY    56  53  89 N7        29.94S
6HR MIN TEMP:  56; 6HR MAX TEMP:  57;


$$

INZ062-063-066-070>080-084-089>092-250100-
SOUTH CENTRAL AND SOUTHEAST INDIANA

CITY           SKY/WX    TMP DP  RH WIND       PRES   REMARKS
BATESVILLE +   CLOUDY    54  54 100 MISG      29.90S
BLOOMINGTON    CLOUDY    55  53  93 N6        29.93S
6HR MIN TEMP:  55; 6HR MAX TEMP:  57; 6HR PCP:  0.03;

FRENCH LICK *+ CLOUDY    54 N/A N/A NW5       29.93R
MADISON *+     CLOUDY    55  54  94 CALM      29.91S
NORTH VERNON + CLOUDY    54  52  94 N3        29.91S
SEYMOUR +      CLOUDY    57  55  94 N6        29.91S FOG

$$





USA.gov is the U.S. government's official web portal to all federal, state and local government web resources and services.